Location: Smithsonian NASM Public Observatory
(38.8879°N, 77.0185°W)
Time: 15:07:31
(UTC-05:00)

Daily predictions for brighter satellites

Satellite Brightness Start Highest point End
(mag) Time Altitude Azimuth Time Altitude Azimuth Time Altitude Azimuth
Cosmos 2333 Rocket 2.7 17:37:45 10° S 17:42:56 39° ESE 17:48:09 10° NE
Atlas Centaur 2 4.0 17:39:00 10° WSW 17:43:20 23° SSW 17:46:59 10° SE
COSMOS 2441 4.5 17:38:56 10° SSE 17:43:42 57° ENE 17:48:28 10° N
Cosmos 389 Rocket 2.6 17:40:07 10° N 17:43:44 82° W 17:47:15 10° S
Cosmos 2058 4.4 17:41:05 10° SE 17:43:46 17° E 17:46:27 10° NE
Cosmos 1763 Rocket 3.5 17:40:43 10° SSW 17:45:58 89° ESE 17:51:11 10° NNE
CORIOLIS 4.2 17:42:16 10° SSE 17:47:37 86° ENE 17:53:00 10° NNW
Tsikada Rocket 4.3 17:46:18 10° SSW 17:52:38 76° W 17:59:05 10° N
BREEZE-M DEB (TANK) 3.8 17:51:22 10° WNW 17:54:13 53° SSW 18:01:59 10° SE
Cosmos 2219 Rocket 2.2 17:50:54 10° S 17:56:30 68° ESE 18:02:05 10° NNE
Cosmos 1743 Rocket 3.6 17:52:55 10° S 17:57:22 83° E 18:01:52 10° N
Cosmos 2278 Rocket 2.7 17:57:51 10° N 18:03:07 37° ENE 18:08:20 10° SE
Cosmos 1328 Rocket 3.6 17:59:44 10° N 18:04:11 87° W 18:08:38 10° S
Cosmos 540 Rocket 3.8 18:01:48 10° S 18:06:42 46° ESE 18:11:39 10° NNE
Cosmos 1340 Rocket 3.9 18:03:49 10° SE 18:06:57 23° E 18:09:40 12° NE
USA 215 3.5 18:01:12 10° ESE 18:07:29 52° NE 18:13:48 10° NW
Cosmos 2151 3.2 18:05:05 10° SSE 18:09:07 47° E 18:13:09 10° NNE
Cosmos 332 Rocket 4.0 18:05:22 10° SSW 18:10:10 76° WNW 18:15:03 10° NNE
Cosmos 1908 4.5 18:06:46 10° NNW 18:10:30 45° W 18:14:14 10° SSW
MONITOR-E 4.3 18:07:55 10° S 18:11:04 81° WSW 18:14:15 10° NNW
Cosmos 1515 Rocket 3.5 18:06:37 10° N 18:11:06 82° E 18:15:32 10° S
SKYMED 2 3.5 18:09:55 10° NNE 18:14:17 80° ESE 18:18:36 10° S
Cosmos 1844 3.7 18:08:29 10° NNW 18:14:17 79° ENE 18:20:04 10° SSE
Abrixas 3.7 18:12:05 10° SSW 18:14:37 27° SE 18:15:50 20° E
SL-14 R/B 3.3 18:11:58 10° S 18:15:46 55° E 18:19:38 10° NNE
Cosmos 1674 4.5 18:14:12 10° SW 18:17:41 34° WNW 18:21:12 10° NNW
MSX 4.5 18:12:15 10° S 18:17:53 60° W 18:23:33 10° NNW
Cosmos 1626 3.8 18:16:12 10° SE 18:17:51 16° ESE 18:17:51 16° ESE
Cosmos 1151 Rocket 2.9 18:16:30 10° N 18:20:46 69° E 18:25:01 10° SSE
Cosmos 1484 Rocket 3.1 18:17:10 10° S 18:21:03 70° W 18:25:01 10° NNW
Cosmos 1634 Rocket 4.0 18:14:51 10° N 18:21:05 87° E 18:27:14 10° S
COSMOS 2428 4.0 18:18:23 10° SW 18:23:44 40° WNW 18:29:06 10° N
NOAA 12 4.2 18:18:56 10° SE 18:23:58 50° ENE 18:29:02 10° N
DMSP B5D1-3 4.4 18:19:15 10° NNE 18:24:21 71° ESE 18:29:25 10° S
Cosmos 1500 Rocket 3.9 18:20:06 10° SSW 18:24:23 68° W 18:28:43 10° N
Cosmos 1125 Rocket 3.4 18:19:49 10° NNW 18:25:01 67° ENE 18:30:10 10° SSE
Cosmos 2237 Rocket 2.1 18:21:31 10° SSW 18:27:05 73° ESE 18:32:44 10° NNE
ALOS 3.2 18:26:54 10° SE 18:30:44 26° ENE 18:34:34 10° NNE
BREEZE-M DEB (TANK) 3.6 18:24:25 10° NW 18:30:56 48° SW 18:33:49 10° SSE
SL-16 R/B 2.9 18:26:52 10° SSE 18:31:50 32° ESE 18:34:21 22° ENE
Cosmos 44 3.4 18:27:19 10° SSW 18:32:37 82° ESE 18:36:41 16° NNE
Spot 2 Rocket 4.3 18:30:22 10° SE 18:34:37 28° ENE 18:38:52 10° N
Cosmos 1300 2.7 18:31:23 10° N 18:35:14 83° W 18:39:04 10° S
Cosmos 1726 2.3 18:33:34 10° N 18:37:20 75° W 18:41:05 10° S
Hubble Space Telescope 3.5 18:38:07 10° SW 18:39:35 12° SSW 18:41:03 10° S
Cosmos 371 Rocket 4.1 18:35:58 10° SW 18:40:38 51° WNW 18:45:20 10° N
Sich 1 3.8 18:37:05 10° SSE 18:40:52 30° E 18:40:52 30° E
NOSS 0 Rocket 4.1 18:35:48 10° SSW 18:42:00 74° WNW 18:48:15 10° NNE
Cosmos 2297 4.2 18:36:50 10° N 18:42:06 37° ENE 18:44:55 23° ESE
BREEZE-M DEB (TANK) 1.8 18:40:20 10° WSW 18:42:45 74° NNW 18:43:04 60° NNE
Lacrosse 5 rocket 2.0 18:40:15 10° NNW 18:43:38 32° NE 18:43:38 32° NE
Cosmos 1633 Rocket 4.2 18:40:13 10° SSE 18:42:54 25° ESE 18:42:54 25° ESE
FREGAT/IRIS 3.8 18:45:53 10° SSE 18:52:42 - N 18:47:34 29° SSE
OTV 4 1.0 18:46:11 10° W 18:49:04 48° SSW 18:49:25 45° SSE
CENTAUR R/B 4.1 18:46:17 10° WSW 18:51:41 30° NW 18:57:41 10° NNE
Resurs 01 Rocket 2.4 18:54:23 32° NE 18:54:23 32° NE 18:57:19 10° N
Meteor 1-11 4.3 18:47:46 10° SSW 18:53:25 78° W 18:59:12 10° N
COSMO-SKYMED 1 4.5 18:58:22 10° N 19:02:08 29° WNW 19:05:54 10° SW
Lacrosse 5 4.3 19:02:17 10° NNW 19:03:09 10° N 19:04:01 10° N
Aureole 2 Rocket 2.9 18:59:44 10° SSW 19:03:17 66° WNW 19:04:38 37° N
CZ-3A R/B 2.9 18:58:49 10° NW 19:03:25 52° NE 19:04:51 40° E
Cosmos 1707 Rocket 3.4 19:02:05 10° N 19:06:24 68° E 19:10:42 10° SSE
FengYun 1-2 T 4.1 19:03:45 10° SSE 19:09:17 68° ENE 19:14:47 10° N
Cosmos 1461 3.1 19:06:55 10° SSW 19:10:31 54° SSE 19:10:31 54° SSE
SJ-6B 3.4 19:08:17 10° S 19:12:15 59° W 19:16:20 10° NNW
Cosmos 2279 Rocket 4.4 19:07:14 10° NNW 19:13:21 62° W 19:19:28 10° S
Cosmos 1666 Rocket 3.3 19:11:05 10° S 19:15:24 82° E 19:15:25 82° E
Milstar 3 4.3 19:13:17 10° WSW 19:18:46 27° SSW 19:23:49 14° SE
FENGYUN 3A 3.5 19:18:35 10° SSE 19:23:56 86° ENE 19:29:20 10° NNW
Cosmos 304 Rocket 4.2 19:21:50 10° SSW 19:26:35 61° WNW 19:28:08 40° N
Cosmos 2333 Rocket 3.9 19:22:26 10° WSW 19:27:16 29° WNW 19:32:08 10° N
Cosmos 1703 4.4 19:24:37 10° SSW 19:28:19 42° W 19:29:16 35° NW
Nadezhda 4 Rocket 4.0 19:26:12 10° S 19:32:27 79° W 19:38:47 10° N
Cosmos 2278 Rocket 4.0 19:42:11 10° NW 19:47:01 29° WSW 19:51:50 10° SSW
Cosmos 1092 Rocket 4.0 19:43:25 10° S 19:49:44 80° W 19:51:46 46° N
USA 215 4.1 19:45:33 16° SSE 19:50:29 46° SW 19:56:45 10° WNW
ALOS 4.0 20:03:58 10° SSW 20:08:02 30° W 20:12:08 10° NW
SL-16 R/B 3.6 20:10:46 10° WSW 20:15:51 34° WNW 20:16:19 33° NW
